Probability
2 3 7 8 6 5 5 5 4 4 3 2 1 2 3 3 3 4 2 1 0 0 0 0 1 3 3 3 2 1 1 1 2 2 1 1 1 2 3 3 3 3 3
2 3 6 8 7 7 8 6 5 3 2 1 0 1 3 3 3 3 1 0 0 0 0 1 2 2 3 2 1 1 1 1 2 2 1 1 1 2 3 3 3 3 3
3 3 4 6 7 7 7 7 5 4 2 1 1 2 4 4 3 3 1 1 1 0 1 2 2 2 2 3 1 1 1 1 2 2 1 0 0 1 2 3 3 3 3
5 4 4 5 5 4 4 4 5 5 3 2 2 3 3 4 3 3 3 2 2 2 2 2 3 2 3 3 2 1 1 1 1 1 1 0 0 1 1 2 3 4 4
6 5 4 5 5 3 2 1 3 4 3 3 3 3 3 3 3 3 3 3 3 3 3 3 3 3 3 2 1 0 0 0 0 0 0 0 0 1 2 2 3 4 5
3 3 3 5 6 5 3 2 3 4 3 3 3 4 3 3 3 3 3 3 4 4 3 3 3 3 2 1 0 0 0 0 0 0 0 0 0 1 1 1 1 3 4
1 1 3 6 8 7 6 5 6 6 5 4 4 3 3 3 3 3 3 4 5 4 3 3 3 3 2 1 0 0 0 0 0 0 0 0 0 0 0 0 0 1 2
1 1 4 6 8 8 8 7 8 8 7 6 4 4 3 3 3 3 4 5 5 4 3 3 3 3 2 1 0 0 0 0 0 0 0 0 0 0 0 0 0 0 1
2 3 5 6 7 9 8 7 7 8 7 6 6 5 4 3 3 3 4 5 4 3 3 3 3 3 3 2 1 0 1 0 0 0 0 0 0 0 0 0 0 0 0
4 4 5 5 5 6 7 6 7 7 7 6 7 5 4 3 1 1 2 3 3 3 3 3 3 3 3 2 1 0 0 0 0 0 0 0 0 1 2 2 2 1 1
4 4 5 5 4 4 4 5 6 7 6 6 6 5 4 2 1 1 1 1 2 3 3 3 3 3 2 2 1 0 0 0 0 0 0 0 0 1 3 4 4 2 2
2 2 3 3 3 2 3 4 5 6 6 5 5 5 4 3 1 1 1 1 1 2 2 3 3 2 1 1 0 0 0 0 0 0 0 0 0 1 3 6 6 3 2
1 1 1 1 1 1 1 2 2 4 5 4 4 4 4 3 2 1 1 1 1 1 1 1 1 0 0 0 0 0 0 0 0 0 0 0 0 1 3 5 5 3 2
1 1 1 0 0 0 0 0 1 2 3 3 3 3 3 3 2 1 0 0 0 0 0 0 0 0 0 0 0 0 0 0 0 0 0 0 0 0 1 2 3 3 3
1 1 1 0 0 0 0 0 0 1 1 1 2 2 2 3 2 0 0 0 0 0 0 0 0 0 0 0 0 0 0 0 0 0 0 0 1 1 1 2 2 3 3
0 0 0 0 0 0 0 0 0 0 0 0 1 1 1 2 1 0 0 0 0 0 0 0 0 0 0 0 0 0 0 0 0 0 0 0 1 2 3 3 3 3 3
0 0 0 0 1 0 0 0 0 0 0 0 0 0 0 1 1 0 0 0 0 0 0 0 0 1 1 0 0 0 0 0 0 0 0 0 1 3 4 5 4 3 3
1 1 0 0 1 1 0 0 0 0 0 0 0 1 1 0 1 1 0 0 0 0 0 0 0 1 1 0 0 0 0 0 0 0 0 0 0 1 3 5 5 4 4
2 2 1 1 3 3 1 0 0 0 0 0 0 1 2 2 2 2 1 1 0 0 0 0 0 1 1 0 0 0 0 0 0 0 0 1 1 1 2 4 5 6 6
4 3 3 4 5 5 3 1 0 0 0 0 0 2 3 4 4 3 3 2 1 0 0 0 0 0 0 0 0 0 0 0 0 0 0 1 2 2 3 3 4 5 5
5 5 5 6 7 6 4 2 0 0 0 0 1 3 5 6 5 4 4 4 3 2 0 0 0 0 0 0 0 0 0 0 0 0 0 0 1 2 3 3 3 2 2
7 7 6 6 7 7 6 4 2 1 1 2 2 4 5 6 6 6 6 6 5 4 2 0 0 0 0 0 0 0 0 0 0 0 0 0 0 1 2 3 3 2 1
7 7 7 6 6 7 7 6 5 4 4 4 4 3 4 6 6 6 6 6 6 5 3 2 1 0 0 0 1 1 1 1 1 0 0 0 0 0 1 3 3 2 2
6 6 6 6 6 7 7 7 6 5 5 5 4 3 4 6 6 6 6 6 5 4 3 3 2 1 1 1 2 2 2 2 2 1 1 0 0 0 0 1 2 2 2
7 7 7 7 6 7 8 8 7 5 5 4 4 4 4 5 6 5 4 5 5 4 4 4 4 3 3 3 3 3 3 3 3 3 2 1 0 0 0 0 1 1 2
9 9 8 7 6 7 9 9 7 5 4 5 5 5 4 5 6 5 4 4 5 5 5 5 5 5 5 4 3 3 3 3 3 3 2 1 0 0 0 0 0 0 1
Wind_Speed
3 5 9 11 11 11 11 11 11 11 11 11 11 11 11 11 10 10 11 11 11 11 12 12 12 12 12 12 12 12 12 12 12 11 11 10 10 10 12 13 11 9 13
7 6 10 11 11 11 11 11 12 11 11 10 10 10 10 10 10 10 10 11 11 11 11 11 11 12 12 11 11 11 11 11 11 11 10 9 9 10 11 12 11 8 13
8 6 9 11 11 11 11 11 11 11 11 11 10 9 10 10 10 10 10 10 10 10 10 10 10 11 11 11 10 11 10 11 11 11 9 4 6 10 11 11 12 13 13
8 6 8 11 12 11 11 11 11 11 11 10 10 9 9 9 9 9 10 10 10 10 10 10 10 10 10 10 10 10 10 10 10 10 5 3 4 9 10 11 12 13 13
7 6 8 12 12 11 11 10 10 10 10 10 9 9 9 9 8 9 9 9 10 10 10 9 9 9 9 8 8 8 8 9 9 7 4 3 3 8 10 10 11 12 12
7 6 8 12 11 11 10 9 9 9 9 9 9 9 8 8 8 8 9 9 9 9 9 9 8 8 8 7 7 8 8 8 6 4 4 4 3 7 9 10 10 11 12
7 5 6 10 10 10 9 9 9 8 8 9 9 8 8 8 8 8 8 8 8 8 8 8 8 7 7 7 7 7 7 7 5 4 4 4 4 8 9 9 9 10 12
8 6 6 9 9 9 9 8 8 8 8 8 8 8 7 7 7 7 7 7 8 8 8 7 7 7 6 6 6 6 7 6 6 5 4 4 6 8 9 9 9 10 12
7 6 4 4 5 7 8 7 7 7 8 7 8 8 7 7 7 6 7 7 7 8 8 7 7 6 6 6 6 6 6 6 4 3 5 4 8 10 10 10 10 10 11
6 4 4 2 2 2 3 6 7 7 8 7 7 7 6 6 6 6 5 6 7 7 7 7 6 6 6 6 5 6 6 5 3 3 3 4 9 11 10 10 10 10 11
5 3 3 3 2 2 2 4 5 5 6 6 5 6 4 2 2 2 3 5 6 7 6 6 6 5 5 5 5 5 5 2 3 3 2 6 9 11 11 10 10 10 11
4 3 3 3 2 2 2 2 1 2 2 2 2 2 2 1 1 2 2 5 5 5 5 4 4 4 3 2 3 4 2 3 3 3 4 9 10 10 10 11 11 11 11
5 4 3 2 2 2 1 2 1 1 1 2 2 2 2 1 1 1 0 1 1 2 1 1 2 1 1 1 1 1 2 3 2 3 4 9 9 10 10 11 12 12 12
4 3 2 2 2 2 2 2 2 1 1 1 2 2 2 1 1 1 1 1 1 1 1 1 1 1 1 1 2 2 2 2 3 3 4 9 9 10 10 11 11 12 12
4 3 2 2 2 2 2 2 2 2 2 2 2 2 2 2 1 1 1 1 1 1 1 1 1 1 1 1 2 2 3 3 4 3 3 9 10 9 10 10 10 10 11
4 3 2 3 2 2 2 2 2 2 2 2 2 2 2 2 2 1 1 1 1 1 1 2 2 1 1 1 1 1 3 3 4 4 3 6 9 9 9 10 10 10 11
4 3 3 3 2 2 2 2 2 2 2 2 2 2 2 2 2 2 1 1 1 1 1 1 1 1 1 1 1 1 2 2 3 4 4 3 4 7 9 9 9 9 9
5 4 3 3 2 1 1 1 2 2 2 2 2 2 2 2 3 2 1 1 1 1 1 2 1 1 1 1 1 1 1 1 2 4 3 3 3 3 5 8 8 8 9
6 5 3 2 2 2 2 2 2 2 1 1 1 2 2 2 3 2 1 1 1 1 1 2 2 2 1 1 1 1 1 1 1 3 3 4 3 3 3 5 7 8 9
5 5 4 3 2 2 2 2 1 1 1 1 1 1 2 2 2 2 2 1 2 2 1 1 2 1 1 1 1 1 1 1 1 1 3 3 3 4 4 3 3 4 7
5 5 4 3 2 2 1 1 1 1 1 1 1 2 2 3 3 3 2 2 2 2 2 2 2 2 1 1 2 2 3 2 1 0 1 2 2 3 3 3 2 2 2
6 5 4 4 3 3 2 2 2 2 1 1 1 1 2 2 3 3 3 2 2 2 2 2 2 1 0 1 2 2 2 3 2 1 0 1 2 2 2 3 3 2 2
6 6 5 4 4 3 2 2 1 1 1 1 0 1 1 2 3 3 3 3 2 3 2 2 3 3 2 0 1 3 3 2 1 2 1 0 1 2 2 2 3 3 3
8 6 5 5 4 3 3 2 3 2 2 2 2 1 1 2 3 3 3 3 2 2 2 3 2 2 3 2 0 1 2 3 2 0 2 1 0 1 2 2 2 3 3
8 7 5 5 4 3 3 3 3 2 2 1 1 1 1 1 2 3 3 3 2 2 2 2 2 2 2 2 1 1 1 1 2 2 1 1 1 1 1 2 2 2 3
7 6 6 5 4 3 3 3 3 3 3 2 2 1 1 1 1 2 3 2 2 2 2 2 2 2 1 1 1 1 2 1 1 2 2 1 1 1 1 1 2 2 3
Wind_Direction
152 159 143 134 125 116 114 114 113 110 106 103 104 108 110 110 111 115 117 120 123 123 125 126 127 130 131 131 133 134 134 133 133 134 133 135 135 141 145 143 142 138 136
154 156 143 137 129 120 116 115 114 112 111 109 107 110 111 112 115 117 119 122 126 126 126 128 129 132 133 134 135 135 135 134 132 131 129 131 132 132 140 145 142 141 140
140 147 146 138 130 123 119 118 115 113 113 113 111 112 114 112 113 117 120 124 127 129 130 130 131 133 134 136 136 135 136 135 133 128 125 122 132 133 139 143 140 140 140
140 145 144 140 133 126 122 120 118 115 115 114 114 115 116 114 114 117 120 125 128 130 132 132 133 135 136 137 136 137 138 136 134 131 124 124 128 135 139 141 139 142 144
132 141 145 137 132 130 126 123 121 119 119 119 119 118 118 117 117 121 123 126 130 133 134 135 138 141 141 140 140 142 145 142 138 129 120 121 118 138 142 143 144 146 148
132 140 141 138 134 132 130 126 122 120 120 122 123 121 122 122 121 122 127 130 131 136 138 141 145 145 146 148 150 150 148 142 136 129 131 133 130 140 144 146 145 149 150
135 136 138 139 139 136 133 130 126 126 128 127 126 126 128 128 127 126 128 130 132 137 140 142 148 148 151 155 153 153 153 150 133 133 136 140 142 143 147 146 143 148 152
135 135 137 142 144 143 141 138 134 133 135 135 134 133 136 136 134 132 131 132 138 142 145 147 147 148 150 153 154 158 160 157 143 146 140 147 152 152 152 149 146 146 149
126 128 131 140 147 152 152 147 142 140 137 138 135 136 141 143 141 137 138 144 147 149 152 154 155 155 157 159 160 161 159 155 138 148 152 155 160 161 158 155 154 155 155
114 117 121 121 133 150 157 153 149 139 136 138 140 141 145 147 147 143 142 150 152 152 156 157 159 160 162 166 165 159 158 154 145 152 150 162 165 165 165 161 161 159 159
108 110 119 122 133 146 151 159 157 148 144 148 150 148 145 143 150 151 150 156 161 160 161 161 160 161 169 172 172 164 162 146 147 155 160 163 166 168 167 166 167 166 165
122 126 122 120 132 139 155 136 135 134 136 134 128 138 127 126 142 147 174 174 170 166 165 162 154 161 164 152 172 173 152 145 152 165 172 171 173 173 173 174 174 172 173
134 124 119 124 121 129 128 133 129 112 113 114 124 127 124 127 126 107 119 180 179 180 168 158 140 144 145 152 171 172 158 155 163 176 177 177 180 179 179 179 179 181 181
122 125 129 132 116 121 126 143 145 138 130 131 145 145 137 135 123 126 147 166 153 159 146 139 128 137 148 163 176 175 161 161 168 173 180 179 183 183 183 182 184 188 186
119 119 113 99 103 113 120 137 137 145 140 150 144 150 139 141 158 165 166 153 160 151 154 158 154 146 161 170 174 170 171 170 166 172 176 181 181 182 183 184 186 188 187
134 130 119 107 101 100 109 115 127 131 134 133 139 144 151 153 159 157 143 144 158 166 155 157 158 152 153 145 137 152 151 157 165 164 172 183 184 184 185 187 186 189 191
145 140 143 142 109 98 106 118 119 126 132 136 147 150 158 161 165 164 150 168 187 168 143 126 109 116 138 130 125 142 142 153 160 169 176 178 186 188 186 187 187 191 194
146 149 154 140 126 113 110 107 100 115 133 140 141 153 163 161 152 143 151 181 177 148 137 132 126 115 109 104 94 115 120 132 154 167 170 171 175 183 190 190 193 196 197
154 151 149 136 138 145 129 105 100 112 131 142 139 165 176 163 151 141 146 166 143 127 132 145 121 125 120 112 121 107 107 120 163 165 168 172 172 178 187 196 201 205 202
155 150 150 146 149 150 128 96 87 92 123 136 155 179 171 154 147 148 146 141 127 118 113 125 131 129 140 145 115 84 49 58 92 140 177 164 172 185 190 196 204 211 207
150 148 150 147 155 140 128 135 137 158 181 190 203 182 164 158 160 153 148 139 135 135 155 158 133 126 105 113 87 43 14 24 54 321 131 139 170 182 176 189 193 190 199
164 161 158 159 161 157 161 163 169 166 179 187 215 185 167 159 167 163 156 156 151 141 144 143 132 126 139 126 122 103 34 359 353 15 95 158 175 170 178 192 192 178 171
171 173 169 172 170 165 153 124 104 74 50 55 196 237 207 172 168 166 163 160 159 154 162 169 162 150 159 215 150 139 143 202 293 335 321 166 164 173 194 188 183 178 175
180 176 170 173 173 169 154 145 153 159 177 212 205 209 211 179 171 164 156 158 162 156 166 182 170 164 150 174 235 181 163 158 148 316 329 325 207 169 185 174 164 170 173
178 175 173 172 177 174 166 168 166 179 198 204 177 171 183 180 174 165 162 162 170 173 180 177 157 145 150 164 165 157 112 103 135 149 228 298 329 286 189 174 164 171 176
174 172 171 172 182 181 178 177 177 184 186 167 179 185 197 187 186 187 175 171 175 176 184 181 159 152 159 152 152 151 157 160 176 155 177 210 250 290 258 185 180 186 191